Time,TemperatureF,DewpointF,PressureIn,WindDirection,WindDirectionDegrees,WindSpeedMPH,WindSpeedGustMPH,Humidity,HourlyPrecipIn,Conditions,Clouds,dailyrainin,SoftwareType,DateUTC
2013-12-02 00:00:00,29.7,25.1,29.77,East,94,4.0,6.0,83,0.00,,,-99.99,Weather View 32 v70,2013-12-02 06:00:00,
2013-12-02 00:05:00,29.7,25.1,29.77,East,94,2.0,6.0,83,0.00,,,-99.99,Weather View 32 v70,2013-12-02 06:05:00,
2013-12-02 00:15:00,29.7,24.8,29.77,ESE,122,4.0,6.0,82,0.00,,,-99.99,Weather View 32 v70,2013-12-02 06:15:00,
2013-12-02 00:25:00,29.7,24.8,29.77,ESE,123,3.0,6.0,82,0.00,,,-99.99,Weather View 32 v70,2013-12-02 06:25:00,
2013-12-02 00:30:00,29.7,24.8,29.77,ESE,113,0.0,6.0,82,0.00,,,-99.99,Weather View 32 v70,2013-12-02 06:30:00,
2013-12-02 00:40:00,29.5,24.7,29.77,SE,135,3.0,5.0,82,0.00,,,-99.99,Weather View 32 v70,2013-12-02 06:40:00,
2013-12-02 00:45:00,29.5,24.7,29.77,SE,142,0.0,5.0,82,0.00,,,-99.99,Weather View 32 v70,2013-12-02 06:45:00,
2013-12-02 00:50:00,29.3,24.5,29.77,SE,133,0.0,5.0,82,0.00,,,-99.99,Weather View 32 v70,2013-12-02 06:50:00,
2013-12-02 01:00:00,29.1,24.3,29.77,SE,135,0.0,5.0,82,0.00,,,-99.99,Weather View 32 v70,2013-12-02 07:00:00,
2013-12-02 01:10:00,29.1,24.3,29.77,SE,139,0.0,4.0,82,0.00,,,-99.99,Weather View 32 v70,2013-12-02 07:10:00,
2013-12-02 01:15:00,29.1,24.3,29.77,SSE,155,3.0,4.0,82,0.00,,,-99.99,Weather View 32 v70,2013-12-02 07:15:00,
2013-12-02 01:25:00,29.3,24.5,29.77,SE,140,3.0,6.0,82,0.00,,,-99.99,Weather View 32 v70,2013-12-02 07:25:00,
2013-12-02 01:30:00,29.5,25.0,29.74,SE,131,2.0,6.0,83,0.00,,,-99.99,Weather View 32 v70,2013-12-02 07:30:00,
2013-12-02 01:40:00,29.7,25.1,29.74,SW,234,3.0,6.0,83,0.00,,,-99.99,Weather View 32 v70,2013-12-02 07:40:00,
2013-12-02 01:45:00,29.7,25.1,29.74,SE,125,2.0,6.0,83,0.00,,,-99.99,Weather View 32 v70,2013-12-02 07:45:00,
2013-12-02 01:51:00,29.7,25.1,29.74,SSE,163,4.0,6.0,83,0.00,,,-99.99,Weather View 32 v70,2013-12-02 07:51:00,
2013-12-02 02:00:00,29.7,25.1,29.74,SSW,207,4.0,6.0,83,0.00,,,-99.99,Weather View 32 v70,2013-12-02 08:00:00,
2013-12-02 02:10:00,29.5,24.7,29.74,WSW,241,3.0,6.0,82,0.00,,,-99.99,Weather View 32 v70,2013-12-02 08:10:00,
2013-12-02 02:15:00,29.5,24.7,29.74,SE,125,3.0,6.0,82,0.00,,,-99.99,Weather View 32 v70,2013-12-02 08:15:00,
2013-12-02 02:25:00,29.3,24.5,29.74,South,190,0.0,5.0,82,0.00,,,-99.99,Weather View 32 v70,2013-12-02 08:25:00,
2013-12-02 02:30:00,29.3,24.5,29.74,SE,128,4.0,5.0,82,0.00,,,-99.99,Weather View 32 v70,2013-12-02 08:30:00,
2013-12-02 02:40:00,29.3,24.5,29.74,South,175,4.0,6.0,82,0.00,,,-99.99,Weather View 32 v70,2013-12-02 08:40:00,
2013-12-02 02:50:00,29.3,24.5,29.74,South,188,3.0,6.0,82,0.00,,,-99.99,Weather View 32 v70,2013-12-02 08:50:00,
2013-12-02 02:55:00,29.3,24.5,29.74,South,189,2.0,8.0,82,0.00,,,-99.99,Weather View 32 v70,2013-12-02 08:55:00,
2013-12-02 03:00:00,29.3,24.8,29.71,SSW,210,4.0,8.0,83,0.00,,,-99.99,Weather View 32 v70,2013-12-02 09:00:00,
2013-12-02 03:05:00,29.5,25.0,29.71,WNW,289,3.0,8.0,83,0.00,,,-99.99,Weather View 32 v70,2013-12-02 09:05:00,
2013-12-02 03:10:00,29.5,25.0,29.71,SW,236,4.0,8.0,83,0.00,,,-99.99,Weather View 32 v70,2013-12-02 09:10:00,
2013-12-02 03:20:00,29.5,25.0,29.71,South,181,3.0,8.0,83,0.00,,,-99.99,Weather View 32 v70,2013-12-02 09:20:00,
2013-12-02 03:25:00,29.5,25.0,29.71,SSW,206,4.0,8.0,83,0.00,,,-99.99,Weather View 32 v70,2013-12-02 09:25:00,
2013-12-02 03:30:00,29.5,25.0,29.71,South,177,0.0,8.0,83,0.00,,,-99.99,Weather View 32 v70,2013-12-02 09:30:00,
2013-12-02 03:40:00,29.5,25.0,29.71,WSW,252,3.0,8.0,83,0.00,,,-99.99,Weather View 32 v70,2013-12-02 09:40:00,
2013-12-02 03:45:00,29.5,25.0,29.68,South,179,3.0,8.0,83,0.00,,,-99.99,Weather View 32 v70,2013-12-02 09:45:00,
2013-12-02 03:52:00,29.5,25.0,29.68,SSE,154,3.0,8.0,83,0.00,,,-99.99,Weather View 32 v70,2013-12-02 09:52:00,
2013-12-02 04:00:00,29.7,25.4,29.68,SSW,208,0.0,5.0,84,0.00,,,-99.99,Weather View 32 v70,2013-12-02 10:00:00,
2013-12-02 04:10:00,30.0,25.8,29.68,SSW,194,3.0,5.0,84,0.00,,,-99.99,Weather View 32 v70,2013-12-02 10:10:00,
2013-12-02 04:20:00,30.0,25.8,29.68,SSE,154,3.0,5.0,84,0.00,,,-99.99,Weather View 32 v70,2013-12-02 10:20:00,
2013-12-02 04:30:00,30.2,25.9,29.68,ESE,105,4.0,6.0,84,0.00,,,-99.99,Weather View 32 v70,2013-12-02 10:30:00,
2013-12-02 04:35:00,30.2,25.9,29.68,South,189,4.0,6.0,84,0.00,,,-99.99,Weather View 32 v70,2013-12-02 10:35:00,
2013-12-02 04:45:00,30.4,25.8,29.68,East,101,2.0,6.0,83,0.00,,,-99.99,Weather View 32 v70,2013-12-02 10:45:00,
2013-12-02 04:52:00,30.4,25.8,29.68,East,97,3.0,6.0,83,0.00,,,-99.99,Weather View 32 v70,2013-12-02 10:52:00,
2013-12-02 05:00:00,30.6,26.0,29.68,ENE,63,3.0,6.0,83,0.00,,,-99.99,Weather View 32 v70,2013-12-02 11:00:00,
2013-12-02 05:10:00,30.6,26.0,29.68,ENE,72,3.0,6.0,83,0.00,,,-99.99,Weather View 32 v70,2013-12-02 11:10:00,
2013-12-02 05:16:00,30.6,25.7,29.65,East,96,3.0,6.0,82,0.00,,,-99.99,Weather View 32 v70,2013-12-02 11:16:00,
2013-12-02 05:26:00,30.6,25.7,29.65,East,98,4.0,6.0,82,0.00,,,-99.99,Weather View 32 v70,2013-12-02 11:26:00,
2013-12-02 05:36:00,30.6,25.7,29.65,East,97,2.0,6.0,82,0.00,,,-99.99,Weather View 32 v70,2013-12-02 11:36:00,
2013-12-02 05:45:00,30.6,26.0,29.65,East,88,4.0,6.0,83,0.00,,,-99.99,Weather View 32 v70,2013-12-02 11:45:00,
2013-12-02 05:54:00,30.6,26.0,29.65,ESE,103,4.0,6.0,83,0.00,,,-99.99,Weather View 32 v70,2013-12-02 11:54:00,
2013-12-02 06:01:00,30.6,26.3,29.65,SSE,159,3.0,6.0,84,0.00,,,-99.99,Weather View 32 v70,2013-12-02 12:01:00,
2013-12-02 06:05:00,30.6,26.3,29.65,ESE,115,3.0,6.0,84,0.00,,,-99.99,Weather View 32 v70,2013-12-02 12:05:00,
2013-12-02 06:15:00,30.6,26.6,29.65,SW,214,3.0,6.0,85,0.00,,,-99.99,Weather View 32 v70,2013-12-02 12:15:00,
2013-12-02 06:21:00,30.4,26.4,29.65,ESE,119,2.0,6.0,85,0.00,,,-99.99,Weather View 32 v70,2013-12-02 12:21:00,
2013-12-02 06:26:00,30.4,26.4,29.65,SSE,161,3.0,6.0,85,0.00,,,-99.99,Weather View 32 v70,2013-12-02 12:26:00,
2013-12-02 06:35:00,30.6,26.9,29.65,SSW,198,2.0,6.0,86,0.00,,,-99.99,Weather View 32 v70,2013-12-02 12:35:00,
2013-12-02 06:40:00,30.6,26.9,29.65,SSE,148,3.0,6.0,86,0.00,,,-99.99,Weather View 32 v70,2013-12-02 12:40:00,
2013-12-02 06:45:00,30.6,26.9,29.65,SW,224,3.0,6.0,86,0.00,,,-99.99,Weather View 32 v70,2013-12-02 12:45:00,
2013-12-02 06:50:00,30.6,27.2,29.65,SSW,210,0.0,6.0,87,0.00,,,-99.99,Weather View 32 v70,2013-12-02 12:50:00,
2013-12-02 06:55:00,30.7,27.3,29.65,SSE,153,3.0,5.0,87,0.00,,,-99.99,Weather View 32 v70,2013-12-02 12:55:00,
2013-12-02 07:01:00,30.7,27.3,29.62,SSE,151,4.0,5.0,87,0.00,,,-99.99,Weather View 32 v70,2013-12-02 13:01:00,
2013-12-02 07:10:00,30.7,27.3,29.62,SSE,168,0.0,5.0,87,0.00,,,-99.99,Weather View 32 v70,2013-12-02 13:10:00,
2013-12-02 07:16:00,30.9,27.8,29.62,WSW,243,3.0,5.0,88,0.00,,,-99.99,Weather View 32 v70,2013-12-02 13:16:00,
2013-12-02 07:25:00,30.9,27.8,29.62,SW,233,0.0,5.0,88,0.00,,,-99.99,Weather View 32 v70,2013-12-02 13:25:00,
2013-12-02 07:31:00,30.9,27.8,29.62,SSW,193,3.0,5.0,88,0.00,,,-99.99,Weather View 32 v70,2013-12-02 13:31:00,
2013-12-02 07:40:00,30.9,28.1,29.62,SSW,197,0.0,5.0,89,0.00,,,-99.99,Weather View 32 v70,2013-12-02 13:40:00,
2013-12-02 07:46:00,30.9,28.1,29.62,SW,217,0.0,5.0,89,0.00,,,-99.99,Weather View 32 v70,2013-12-02 13:46:00,
2013-12-02 07:55:00,30.9,28.1,29.62,SW,218,0.0,5.0,89,0.00,,,-99.99,Weather View 32 v70,2013-12-02 13:55:00,
2013-12-02 08:00:00,30.9,28.1,29.62,SW,215,0.0,5.0,89,0.00,,,-99.99,Weather View 32 v70,2013-12-02 14:00:00,
2013-12-02 08:10:00,31.1,28.2,29.62,SSE,159,3.0,5.0,89,0.00,,,-99.99,Weather View 32 v70,2013-12-02 14:10:00,
2013-12-02 08:15:00,31.1,28.2,29.62,WSW,251,0.0,5.0,89,0.00,,,-99.99,Weather View 32 v70,2013-12-02 14:15:00,
2013-12-02 08:25:00,31.1,28.5,29.62,SW,220,3.0,4.0,90,0.00,,,-99.99,Weather View 32 v70,2013-12-02 14:25:00,
2013-12-02 08:35:00,31.3,28.7,29.62,SSW,209,0.0,4.0,90,0.00,,,-99.99,Weather View 32 v70,2013-12-02 14:35:00,
2013-12-02 08:45:00,31.3,28.7,29.62,SSW,193,2.0,4.0,90,0.00,,,-99.99,Weather View 32 v70,2013-12-02 14:45:00,
2013-12-02 08:50:00,31.5,28.9,29.62,SSW,198,0.0,4.0,90,0.00,,,-99.99,Weather View 32 v70,2013-12-02 14:50:00,
2013-12-02 08:55:00,31.5,28.9,29.62,SSW,203,0.0,4.0,90,0.00,,,-99.99,Weather View 32 v70,2013-12-02 14:55:00,
2013-12-02 09:05:00,31.6,29.3,29.62,SSW,203,0.0,4.0,91,0.00,,,-99.99,Weather View 32 v70,2013-12-02 15:05:00,
2013-12-02 09:10:00,31.6,29.3,29.62,SSW,207,3.0,4.0,91,0.00,,,-99.99,Weather View 32 v70,2013-12-02 15:10:00,
2013-12-02 09:20:00,31.6,29.3,29.62,SSW,211,0.0,4.0,91,0.00,,,-99.99,Weather View 32 v70,2013-12-02 15:20:00,
2013-12-02 09:25:00,31.6,29.3,29.62,SSW,209,3.0,4.0,91,0.00,,,-99.99,Weather View 32 v70,2013-12-02 15:25:00,
2013-12-02 09:35:00,31.8,29.5,29.62,SSW,209,0.0,4.0,91,0.00,,,-99.99,Weather View 32 v70,2013-12-02 15:35:00,
2013-12-02 09:40:00,31.8,29.5,29.62,SSW,209,0.0,4.0,91,0.00,,,-99.99,Weather View 32 v70,2013-12-02 15:40:00,
2013-12-02 09:50:00,31.8,29.8,29.62,SW,232,0.0,4.0,92,0.00,,,-99.99,Weather View 32 v70,2013-12-02 15:50:00,
2013-12-02 09:56:00,32.0,29.9,29.62,NNW,338,4.0,4.0,92,0.00,,,-99.99,Weather View 32 v70,2013-12-02 15:56:00,
2013-12-02 10:05:00,32.2,30.1,29.62,SSW,203,3.0,4.0,92,0.00,,,-99.99,Weather View 32 v70,2013-12-02 16:05:00,
2013-12-02 10:10:00,32.2,30.1,29.62,SW,221,2.0,4.0,92,0.00,,,-99.99,Weather View 32 v70,2013-12-02 16:10:00,
2013-12-02 10:15:00,32.2,30.1,29.62,SW,221,0.0,4.0,92,0.00,,,-99.99,Weather View 32 v70,2013-12-02 16:15:00,
2013-12-02 10:25:00,32.4,30.3,29.62,SW,235,0.0,4.0,92,0.00,,,-99.99,Weather View 32 v70,2013-12-02 16:25:00,
2013-12-02 10:30:00,32.5,30.7,29.62,NNW,339,0.0,4.0,93,0.00,,,-99.99,Weather View 32 v70,2013-12-02 16:30:00,
2013-12-02 10:40:00,32.7,30.9,29.62,North,353,3.0,4.0,93,0.00,,,-99.99,Weather View 32 v70,2013-12-02 16:40:00,
2013-12-02 10:45:00,32.7,30.9,29.59,SW,229,0.0,4.0,93,0.00,,,-99.99,Weather View 32 v70,2013-12-02 16:45:00,
2013-12-02 10:50:00,32.9,31.1,29.59,WNW,284,3.0,4.0,93,0.00,,,-99.99,Weather View 32 v70,2013-12-02 16:50:00,
2013-12-02 10:56:00,33.1,31.3,29.59,NW,314,0.0,4.0,93,0.00,,,-99.99,Weather View 32 v70,2013-12-02 16:56:00,
2013-12-02 11:05:00,33.3,31.5,29.59,WSW,245,0.0,4.0,93,0.00,,,-99.99,Weather View 32 v70,2013-12-02 17:05:00,
2013-12-02 11:15:00,33.4,31.9,29.59,WNW,290,2.0,4.0,94,0.00,,,-99.99,Weather View 32 v70,2013-12-02 17:15:00,
2013-12-02 11:25:00,33.6,32.1,29.59,SW,226,2.0,4.0,94,0.00,,,-99.99,Weather View 32 v70,2013-12-02 17:25:00,
2013-12-02 11:35:00,33.6,32.1,29.59,NNE,21,0.0,4.0,94,0.00,,,-99.99,Weather View 32 v70,2013-12-02 17:35:00,
2013-12-02 11:40:00,33.4,31.9,29.59,NW,319,0.0,4.0,94,0.00,,,-99.99,Weather View 32 v70,2013-12-02 17:40:00,
2013-12-02 11:50:00,33.3,31.7,29.59,ENE,60,3.0,4.0,94,0.00,,,-99.99,Weather View 32 v70,2013-12-02 17:50:00,
2013-12-02 11:56:00,33.3,31.7,29.59,WNW,291,0.0,4.0,94,0.00,,,-99.99,Weather View 32 v70,2013-12-02 17:56:00,
2013-12-02 12:05:00,33.3,31.7,29.59,NNW,348,3.0,4.0,94,0.00,,,-99.99,Weather View 32 v70,2013-12-02 18:05:00,
2013-12-02 12:10:00,33.3,31.7,29.59,NNE,16,2.0,4.0,94,0.00,,,-99.99,Weather View 32 v70,2013-12-02 18:10:00,
2013-12-02 12:20:00,33.3,31.7,29.59,SSW,192,0.0,4.0,94,0.00,,,-99.99,Weather View 32 v70,2013-12-02 18:20:00,
2013-12-02 12:30:00,33.3,31.7,29.59,SSW,194,0.0,4.0,94,0.00,,,-99.99,Weather View 32 v70,2013-12-02 18:30:00,
2013-12-02 12:40:00,33.4,31.9,29.59,SW,224,3.0,4.0,94,0.00,,,-99.99,Weather View 32 v70,2013-12-02 18:40:00,
2013-12-02 12:50:00,33.4,31.9,29.56,SSW,208,3.0,4.0,94,0.00,,,-99.99,Weather View 32 v70,2013-12-02 18:50:00,
2013-12-02 12:57:00,33.4,31.9,29.56,NNW,343,0.0,4.0,94,0.00,,,-99.99,Weather View 32 v70,2013-12-02 18:57:00,
2013-12-02 13:05:00,33.6,32.1,29.56,NE,51,3.0,4.0,94,0.00,,,-99.99,Weather View 32 v70,2013-12-02 19:05:00,
2013-12-02 13:10:00,33.6,32.1,29.56,South,187,0.0,4.0,94,0.00,,,-99.99,Weather View 32 v70,2013-12-02 19:10:00,
2013-12-02 13:20:00,33.6,32.1,29.56,SSW,211,3.0,4.0,94,0.00,,,-99.99,Weather View 32 v70,2013-12-02 19:20:00,
2013-12-02 13:29:00,33.8,32.3,29.56,NW,312,2.0,5.0,94,0.00,,,-99.99,Weather View 32 v70,2013-12-02 19:29:00,
2013-12-02 13:35:00,34.0,32.4,29.56,NNW,334,4.0,5.0,94,0.00,,,-99.99,Weather View 32 v70,2013-12-02 19:35:00,
2013-12-02 13:44:00,34.3,32.8,29.56,West,267,3.0,5.0,94,0.00,,,-99.99,Weather View 32 v70,2013-12-02 19:44:00,
2013-12-02 13:54:00,34.2,32.3,29.56,WSW,252,3.0,5.0,93,0.00,,,-99.99,Weather View 32 v70,2013-12-02 19:54:00,
2013-12-02 14:00:00,34.0,32.2,29.56,NNW,328,0.0,5.0,93,0.00,,,-99.99,Weather View 32 v70,2013-12-02 20:00:00,
2013-12-02 14:06:00,34.0,32.2,29.56,NNW,333,3.0,5.0,93,0.00,,,-99.99,Weather View 32 v70,2013-12-02 20:06:00,
2013-12-02 14:15:00,33.8,32.0,29.56,NNW,337,3.0,5.0,93,0.00,,,-99.99,Weather View 32 v70,2013-12-02 20:15:00,
2013-12-02 14:21:00,33.6,31.8,29.56,West,277,0.0,5.0,93,0.00,,,-99.99,Weather View 32 v70,2013-12-02 20:21:00,
2013-12-02 14:30:00,33.4,31.6,29.56,NNW,338,3.0,5.0,93,0.00,,,-99.99,Weather View 32 v70,2013-12-02 20:30:00,
2013-12-02 14:35:00,33.3,31.5,29.56,NNW,345,3.0,6.0,93,0.00,,,-99.99,Weather View 32 v70,2013-12-02 20:35:00,
2013-12-02 14:40:00,33.3,31.5,29.56,NNW,348,0.0,6.0,93,0.00,,,-99.99,Weather View 32 v70,2013-12-02 20:40:00,
2013-12-02 14:50:00,33.3,31.5,29.56,NW,310,4.0,6.0,93,0.00,,,-99.99,Weather View 32 v70,2013-12-02 20:50:00,
2013-12-02 14:55:00,33.3,31.2,29.56,NNW,343,0.0,6.0,92,0.00,,,-99.99,Weather View 32 v70,2013-12-02 20:55:00,
2013-12-02 15:05:00,33.1,31.0,29.56,North,0,0.0,6.0,92,0.00,,,-99.99,Weather View 32 v70,2013-12-02 21:05:00,
2013-12-02 15:10:00,33.1,31.0,29.56,North,357,3.0,6.0,92,0.00,,,-99.99,Weather View 32 v70,2013-12-02 21:10:00,
2013-12-02 15:15:00,32.9,30.8,29.56,NNW,329,0.0,6.0,92,0.00,,,-99.99,Weather View 32 v70,2013-12-02 21:15:00,
2013-12-02 15:25:00,32.9,30.8,29.56,NNW,332,0.0,6.0,92,0.00,,,-99.99,Weather View 32 v70,2013-12-02 21:25:00,
2013-12-02 15:30:00,32.9,30.8,29.56,NNW,329,0.0,6.0,92,0.00,,,-99.99,Weather View 32 v70,2013-12-02 21:30:00,
2013-12-02 15:35:00,32.9,30.8,29.56,NNW,343,0.0,5.0,92,0.00,,,-99.99,Weather View 32 v70,2013-12-02 21:35:00,
2013-12-02 15:45:00,32.9,30.8,29.56,NNW,339,0.0,5.0,92,0.00,,,-99.99,Weather View 32 v70,2013-12-02 21:45:00,
2013-12-02 15:50:00,32.9,30.8,29.56,NNW,348,3.0,5.0,92,0.00,,,-99.99,Weather View 32 v70,2013-12-02 21:50:00,
2013-12-02 16:00:00,32.9,30.8,29.56,NNW,346,0.0,5.0,92,0.00,,,-99.99,Weather View 32 v70,2013-12-02 22:00:00,
2013-12-02 16:05:00,32.9,30.8,29.56,North,353,2.0,5.0,92,0.00,,,-99.99,Weather View 32 v70,2013-12-02 22:05:00,
2013-12-02 16:15:00,32.9,30.8,29.56,NNW,348,0.0,5.0,92,0.00,,,-99.99,Weather View 32 v70,2013-12-02 22:15:00,
2013-12-02 16:25:00,32.9,30.8,29.56,NNW,335,3.0,5.0,92,0.00,,,-99.99,Weather View 32 v70,2013-12-02 22:25:00,
2013-12-02 16:30:00,32.9,30.8,29.56,North,353,0.0,5.0,92,0.00,,,-99.99,Weather View 32 v70,2013-12-02 22:30:00,
2013-12-02 16:40:00,32.9,30.8,29.56,North,353,4.0,5.0,92,0.00,,,-99.99,Weather View 32 v70,2013-12-02 22:40:00,
2013-12-02 16:50:00,32.9,30.8,29.59,North,353,0.0,5.0,92,0.00,,,-99.99,Weather View 32 v70,2013-12-02 22:50:00,
2013-12-02 16:55:00,32.9,30.8,29.59,North,357,4.0,5.0,92,0.00,,,-99.99,Weather View 32 v70,2013-12-02 22:55:00,
2013-12-02 17:00:00,33.1,31.3,29.56,North,0,0.0,5.0,93,0.00,,,-99.99,Weather View 32 v70,2013-12-02 23:00:00,
2013-12-02 17:10:00,33.1,31.3,29.56,NNW,342,3.0,5.0,93,0.00,,,-99.99,Weather View 32 v70,2013-12-02 23:10:00,
2013-12-02 17:15:00,33.1,31.3,29.59,North,353,2.0,5.0,93,0.00,,,-99.99,Weather View 32 v70,2013-12-02 23:15:00,
2013-12-02 17:25:00,33.1,31.3,29.59,North,353,3.0,5.0,93,0.00,,,-99.99,Weather View 32 v70,2013-12-02 23:25:00,
2013-12-02 17:35:00,32.9,31.1,29.59,West,265,4.0,5.0,93,0.00,,,-99.99,Weather View 32 v70,2013-12-02 23:35:00,
2013-12-02 17:45:00,32.7,30.9,29.59,NNW,343,3.0,6.0,93,0.00,,,-99.99,Weather View 32 v70,2013-12-02 23:45:00,
2013-12-02 17:55:00,32.5,30.7,29.59,NW,324,0.0,6.0,93,0.00,,,-99.99,Weather View 32 v70,2013-12-02 23:55:00,
2013-12-02 18:00:00,32.5,30.7,29.59,North,6,0.0,6.0,93,0.00,,,-99.99,Weather View 32 v70,2013-12-03 00:00:00,
2013-12-02 18:10:00,32.5,30.7,29.59,West,265,3.0,6.0,93,0.00,,,-99.99,Weather View 32 v70,2013-12-03 00:10:00,
2013-12-02 18:15:00,32.5,30.7,29.59,NNE,13,3.0,6.0,93,0.00,,,-99.99,Weather View 32 v70,2013-12-03 00:15:00,
2013-12-02 18:25:00,32.5,30.7,29.59,NNW,343,3.0,6.0,93,0.00,,,-99.99,Weather View 32 v70,2013-12-03 00:25:00,
2013-12-02 18:30:00,32.5,30.7,29.59,NNW,346,5.0,6.0,93,0.00,,,-99.99,Weather View 32 v70,2013-12-03 00:30:00,
2013-12-02 18:40:00,32.4,30.6,29.59,North,3,3.0,6.0,93,0.00,,,-99.99,Weather View 32 v70,2013-12-03 00:40:00,
2013-12-02 18:50:00,32.4,30.6,29.59,North,353,4.0,6.0,93,0.00,,,-99.99,Weather View 32 v70,2013-12-03 00:50:00,
2013-12-02 19:00:00,32.4,30.6,29.59,NNE,16,4.0,7.0,93,0.00,,,-99.99,Weather View 32 v70,2013-12-03 01:00:00,
2013-12-02 19:05:00,32.4,30.6,29.59,North,357,4.0,7.0,93,0.00,,,-99.99,Weather View 32 v70,2013-12-03 01:05:00,
2013-12-02 19:14:00,32.2,30.4,29.62,North,357,5.0,7.0,93,0.00,,,-99.99,Weather View 32 v70,2013-12-03 01:14:00,
2013-12-02 19:24:00,32.2,30.4,29.62,West,275,4.0,7.0,93,0.00,,,-99.99,Weather View 32 v70,2013-12-03 01:24:00,
2013-12-02 19:34:00,32.2,30.4,29.62,NW,309,5.0,7.0,93,0.00,,,-99.99,Weather View 32 v70,2013-12-03 01:34:00,
2013-12-02 19:39:00,32.2,30.4,29.62,NW,312,3.0,7.0,93,0.00,,,-99.99,Weather View 32 v70,2013-12-03 01:39:00,
2013-12-02 19:49:00,32.2,30.4,29.59,NNW,328,3.0,7.0,93,0.00,,,-99.99,Weather View 32 v70,2013-12-03 01:49:00,
2013-12-02 19:59:00,32.2,30.4,29.62,North,350,3.0,7.0,93,0.00,,,-99.99,Weather View 32 v70,2013-12-03 01:59:00,
2013-12-02 20:11:00,32.4,30.6,29.62,NW,311,5.0,7.0,93,0.00,,,-99.99,Weather View 32 v70,2013-12-03 02:11:00,
2013-12-02 20:21:00,32.2,30.4,29.59,NNW,332,0.0,7.0,93,0.00,,,-99.99,Weather View 32 v70,2013-12-03 02:21:00,
2013-12-02 20:31:00,32.0,30.2,29.62,North,353,4.0,7.0,93,0.00,,,-99.99,Weather View 32 v70,2013-12-03 02:31:00,
2013-12-02 20:40:00,31.6,29.8,29.62,North,349,5.0,7.0,93,0.00,,,-99.99,Weather View 32 v70,2013-12-03 02:40:00,
2013-12-02 20:45:00,31.5,29.7,29.62,NNW,346,4.0,7.0,93,0.00,,,-99.99,Weather View 32 v70,2013-12-03 02:45:00,
2013-12-02 20:55:00,31.1,29.3,29.62,NNW,342,4.0,6.0,93,0.00,,,-99.99,Weather View 32 v70,2013-12-03 02:55:00,
2013-12-02 21:00:00,31.1,29.0,29.62,North,349,3.0,6.0,92,0.00,,,-99.99,Weather View 32 v70,2013-12-03 03:00:00,
2013-12-02 21:10:00,30.9,28.9,29.62,NNW,332,5.0,8.0,92,0.00,,,-99.99,Weather View 32 v70,2013-12-03 03:10:00,
2013-12-02 21:15:00,30.7,28.7,29.65,North,350,3.0,8.0,92,0.00,,,-99.99,Weather View 32 v70,2013-12-03 03:15:00,
2013-12-02 21:25:00,30.6,28.5,29.65,NNW,346,4.0,8.0,92,0.00,,,-99.99,Weather View 32 v70,2013-12-03 03:25:00,
2013-12-02 21:30:00,30.6,28.5,29.65,North,353,4.0,8.0,92,0.00,,,-99.99,Weather View 32 v70,2013-12-03 03:30:00,
2013-12-02 21:40:00,30.4,28.3,29.65,North,353,4.0,8.0,92,0.00,,,-99.99,Weather View 32 v70,2013-12-03 03:40:00,
2013-12-02 21:50:00,30.2,28.2,29.65,NNW,331,3.0,8.0,92,0.00,,,-99.99,Weather View 32 v70,2013-12-03 03:50:00,
2013-12-02 21:55:00,30.2,28.2,29.65,NW,320,6.0,8.0,92,0.00,,,-99.99,Weather View 32 v70,2013-12-03 03:55:00,
2013-12-02 22:03:00,30.2,28.2,29.65,NNE,33,6.0,8.0,92,0.00,,,-99.99,Weather View 32 v70,2013-12-03 04:03:00,
2013-12-02 22:10:00,30.0,28.0,29.65,NW,312,4.0,9.0,92,0.00,,,-99.99,Weather View 32 v70,2013-12-03 04:10:00,
2013-12-02 22:20:00,30.0,28.0,29.62,NNW,334,4.0,9.0,92,0.00,,,-99.99,Weather View 32 v70,2013-12-03 04:20:00,
2013-12-02 22:25:00,29.8,27.8,29.62,North,0,3.0,9.0,92,0.00,,,-99.99,Weather View 32 v70,2013-12-03 04:25:00,
2013-12-02 22:35:00,29.8,27.8,29.62,NNW,345,4.0,9.0,92,0.00,,,-99.99,Weather View 32 v70,2013-12-03 04:35:00,
2013-12-02 22:45:00,29.8,27.8,29.62,North,0,5.0,9.0,92,0.00,,,-99.99,Weather View 32 v70,2013-12-03 04:45:00,
2013-12-02 22:50:00,29.7,27.6,29.62,North,353,4.0,9.0,92,0.00,,,-99.99,Weather View 32 v70,2013-12-03 04:50:00,
2013-12-02 23:00:00,29.7,27.6,29.65,North,353,5.0,9.0,92,0.00,,,-99.99,Weather View 32 v70,2013-12-03 05:00:00,
2013-12-02 23:04:00,29.7,27.6,29.65,North,353,5.0,9.0,92,0.00,,,-99.99,Weather View 32 v70,2013-12-03 05:04:00,
2013-12-02 23:10:00,29.5,27.2,29.65,NNW,345,6.0,8.0,91,0.00,,,-99.99,Weather View 32 v70,2013-12-03 05:10:00,
2013-12-02 23:15:00,29.5,27.2,29.65,NW,307,2.0,9.0,91,0.00,,,-99.99,Weather View 32 v70,2013-12-03 05:15:00,
2013-12-02 23:20:00,29.5,27.2,29.65,North,353,5.0,10.0,91,0.00,,,-99.99,Weather View 32 v70,2013-12-03 05:20:00,
2013-12-02 23:25:00,29.5,27.2,29.65,NW,321,6.0,10.0,91,0.00,,,-99.99,Weather View 32 v70,2013-12-03 05:25:00,
2013-12-02 23:35:00,29.3,27.0,29.68,North,0,3.0,10.0,91,0.00,,,-99.99,Weather View 32 v70,2013-12-03 05:35:00,
2013-12-02 23:40:00,29.3,27.0,29.68,North,353,3.0,10.0,91,0.00,,,-99.99,Weather View 32 v70,2013-12-03 05:40:00,
2013-12-02 23:50:00,29.1,26.6,29.65,North,357,6.0,10.0,90,0.00,,,-99.99,Weather View 32 v70,2013-12-03 05:50:00,